Year,Month,Day,Hour,Minute,Value (Times are PST for temperature in C)
2011,04,29,00,00,3.80
2011,04,29,00,01,3.70
2011,04,29,00,02,3.70
2011,04,29,00,03,3.70
2011,04,29,00,04,3.70
2011,04,29,00,05,3.70
2011,04,29,00,06,3.70
2011,04,29,00,07,3.70
2011,04,29,00,08,3.70
2011,04,29,00,09,3.70
2011,04,29,00,10,3.70
2011,04,29,00,11,3.60
2011,04,29,00,12,3.60
2011,04,29,00,13,3.60
2011,04,29,00,14,3.60
2011,04,29,00,15,3.60
2011,04,29,00,16,3.60
2011,04,29,00,17,3.50
2011,04,29,00,18,3.50
2011,04,29,00,19,3.50
2011,04,29,00,20,3.50
2011,04,29,00,21,3.50
2011,04,29,00,22,3.50
2011,04,29,00,23,3.50
2011,04,29,00,24,3.50
2011,04,29,00,25,3.50
2011,04,29,00,26,3.50
2011,04,29,00,27,3.50
2011,04,29,00,28,3.40
2011,04,29,00,29,3.40
2011,04,29,00,30,3.40
2011,04,29,00,31,3.30
2011,04,29,00,32,3.30
2011,04,29,00,33,3.30
2011,04,29,00,34,3.30
2011,04,29,00,35,3.30
2011,04,29,00,36,3.30
2011,04,29,00,37,3.30
2011,04,29,00,38,3.30
2011,04,29,00,39,3.30
2011,04,29,00,40,3.30
2011,04,29,00,41,3.30
2011,04,29,00,42,3.30
2011,04,29,00,43,3.30
2011,04,29,00,44,3.20
2011,04,29,00,45,3.20
2011,04,29,00,46,3.20
2011,04,29,00,47,3.20
2011,04,29,00,48,3.20
2011,04,29,00,49,3.20
2011,04,29,00,50,3.20
2011,04,29,00,51,3.10
2011,04,29,00,52,3.10
2011,04,29,00,53,3.10
2011,04,29,00,54,3.10
2011,04,29,00,55,3.10
2011,04,29,00,56,3.10
2011,04,29,00,57,3.10
2011,04,29,00,58,3.10
2011,04,29,00,59,3.10
2011,04,29,01,00,3.10
2011,04,29,01,01,3.10
2011,04,29,01,02,3.10
2011,04,29,01,03,3.10
2011,04,29,01,04,3.10
2011,04,29,01,05,3.10
2011,04,29,01,06,3.10
2011,04,29,01,07,3.10
2011,04,29,01,08,3.10
2011,04,29,01,09,3.10
2011,04,29,01,10,3.10
2011,04,29,01,11,3.10
2011,04,29,01,12,3.10
2011,04,29,01,13,3.10
2011,04,29,01,14,3.10
2011,04,29,01,15,3.10
2011,04,29,01,16,3.10
2011,04,29,01,17,3.10
2011,04,29,01,18,3.10
2011,04,29,01,19,3.10
2011,04,29,01,20,3.10
2011,04,29,01,21,3.10
2011,04,29,01,22,3.10
2011,04,29,01,23,3.10
2011,04,29,01,24,3.10
2011,04,29,01,25,3.10
2011,04,29,01,26,3.10
2011,04,29,01,27,3.10
2011,04,29,01,28,3.10
2011,04,29,01,29,3.10
2011,04,29,01,30,3.10
2011,04,29,01,31,3.10
2011,04,29,01,32,3.10
2011,04,29,01,33,3.10
2011,04,29,01,34,3.10
2011,04,29,01,35,3.10
2011,04,29,01,36,3.00
2011,04,29,01,37,3.00
2011,04,29,01,38,3.00
2011,04,29,01,39,3.00
2011,04,29,01,40,3.00
2011,04,29,01,41,3.00
2011,04,29,01,42,2.90
2011,04,29,01,43,2.90
2011,04,29,01,44,2.90
2011,04,29,01,45,2.90
2011,04,29,01,46,2.90
2011,04,29,01,47,2.90
2011,04,29,01,48,2.90
2011,04,29,01,49,2.90
2011,04,29,01,50,2.90
2011,04,29,01,51,3.00
2011,04,29,01,52,2.90
2011,04,29,01,53,2.90
2011,04,29,01,54,2.90
2011,04,29,01,55,2.90
2011,04,29,01,56,2.90
2011,04,29,01,57,2.90
2011,04,29,01,58,2.90
2011,04,29,01,59,2.90
2011,04,29,02,00,2.80
2011,04,29,02,01,2.80
2011,04,29,02,02,2.80
2011,04,29,02,03,2.80
2011,04,29,02,04,2.80
2011,04,29,02,05,2.70
2011,04,29,02,06,2.70
2011,04,29,02,07,2.70
2011,04,29,02,08,2.60
2011,04,29,02,09,2.60
2011,04,29,02,10,2.60
2011,04,29,02,11,2.60
2011,04,29,02,12,2.60
2011,04,29,02,13,2.60
2011,04,29,02,14,2.60
2011,04,29,02,15,2.60
2011,04,29,02,16,2.60
2011,04,29,02,17,2.60
2011,04,29,02,18,2.60
2011,04,29,02,19,2.60
2011,04,29,02,20,2.60
2011,04,29,02,21,2.60
2011,04,29,02,22,2.60
2011,04,29,02,23,2.60
2011,04,29,02,24,2.60
2011,04,29,02,25,2.50
2011,04,29,02,26,2.50
2011,04,29,02,27,2.50
2011,04,29,02,28,2.50
2011,04,29,02,29,2.50
2011,04,29,02,30,2.50
2011,04,29,02,31,2.50
2011,04,29,02,32,2.60
2011,04,29,02,33,2.60
2011,04,29,02,34,2.60
2011,04,29,02,35,2.60
2011,04,29,02,36,2.50
2011,04,29,02,37,2.50
2011,04,29,02,38,2.50
2011,04,29,02,39,2.50
2011,04,29,02,40,2.50
2011,04,29,02,41,2.50
2011,04,29,02,42,2.50
2011,04,29,02,43,2.50
2011,04,29,02,44,2.50
2011,04,29,02,45,2.40
2011,04,29,02,46,2.40
2011,04,29,02,47,2.40
2011,04,29,02,48,2.40
2011,04,29,02,49,2.40
2011,04,29,02,50,2.40
2011,04,29,02,51,2.40
2011,04,29,02,52,2.30
2011,04,29,02,53,2.30
2011,04,29,02,54,2.40
2011,04,29,02,55,2.40
2011,04,29,02,56,2.30
2011,04,29,02,57,2.30
2011,04,29,02,58,2.30
2011,04,29,02,59,2.30
2011,04,29,03,00,2.30
2011,04,29,03,01,2.30
2011,04,29,03,02,2.30
2011,04,29,03,03,2.30
2011,04,29,03,04,2.30
2011,04,29,03,05,2.30
2011,04,29,03,06,2.20
2011,04,29,03,07,2.20
2011,04,29,03,08,2.20
2011,04,29,03,09,2.20
2011,04,29,03,10,2.20
2011,04,29,03,11,2.20
2011,04,29,03,12,2.20
2011,04,29,03,13,2.20
2011,04,29,03,14,2.20
2011,04,29,03,15,2.20
2011,04,29,03,16,2.20
2011,04,29,03,17,2.20
2011,04,29,03,18,2.20
2011,04,29,03,19,2.20
2011,04,29,03,20,2.20
2011,04,29,03,21,2.20
2011,04,29,03,22,2.20
2011,04,29,03,23,2.20
2011,04,29,03,24,2.20
2011,04,29,03,25,2.20
2011,04,29,03,26,2.10
2011,04,29,03,27,2.10
2011,04,29,03,28,2.10
2011,04,29,03,29,2.10
2011,04,29,03,30,2.10
2011,04,29,03,31,2.10
2011,04,29,03,32,2.10
2011,04,29,03,33,2.10
2011,04,29,03,34,2.10
2011,04,29,03,35,2.10
2011,04,29,03,36,2.10
2011,04,29,03,37,2.10
2011,04,29,03,38,2.10
2011,04,29,03,39,2.10
2011,04,29,03,40,2.10
2011,04,29,03,41,2.10
2011,04,29,03,42,2.10
2011,04,29,03,43,2.10
2011,04,29,03,44,2.10
2011,04,29,03,45,2.10
2011,04,29,03,46,2.10
2011,04,29,03,47,2.10
2011,04,29,03,48,2.10
2011,04,29,03,49,2.10
2011,04,29,03,50,2.10
2011,04,29,03,51,2.10
2011,04,29,03,52,2.10
2011,04,29,03,53,2.10
2011,04,29,03,54,2.10
2011,04,29,03,55,2.10
2011,04,29,03,56,2.10
2011,04,29,03,57,2.10
2011,04,29,03,58,2.10
2011,04,29,03,59,2.10
2011,04,29,04,00,2.10
2011,04,29,04,01,2.10
2011,04,29,04,02,2.00
2011,04,29,04,03,2.00
2011,04,29,04,04,2.00
2011,04,29,04,05,2.00
2011,04,29,04,06,2.00
2011,04,29,04,07,2.00
2011,04,29,04,08,2.00
2011,04,29,04,09,1.90
2011,04,29,04,10,1.90
2011,04,29,04,11,1.90
2011,04,29,04,12,1.90
2011,04,29,04,13,1.90
2011,04,29,04,14,1.90
2011,04,29,04,15,1.90
2011,04,29,04,16,2.00
2011,04,29,04,17,2.00
2011,04,29,04,18,2.00
2011,04,29,04,19,2.00
2011,04,29,04,20,2.00
2011,04,29,04,21,2.00
2011,04,29,04,22,2.00
2011,04,29,04,23,2.00
2011,04,29,04,24,2.00
2011,04,29,04,25,2.00
2011,04,29,04,26,2.00
2011,04,29,04,27,1.90
2011,04,29,04,28,1.90
2011,04,29,04,29,1.90
2011,04,29,04,30,1.80
2011,04,29,04,31,1.80
2011,04,29,04,32,1.80
2011,04,29,04,33,1.70
2011,04,29,04,34,1.70
2011,04,29,04,35,1.70
2011,04,29,04,36,1.70
2011,04,29,04,37,1.70
2011,04,29,04,38,1.70
2011,04,29,04,39,1.70
2011,04,29,04,40,1.70
2011,04,29,04,41,1.70
2011,04,29,04,42,1.70
2011,04,29,04,43,1.70
2011,04,29,04,44,1.70
2011,04,29,04,45,1.60
2011,04,29,04,46,1.70
2011,04,29,04,47,1.60
2011,04,29,04,48,1.70
2011,04,29,04,49,1.70
2011,04,29,04,50,1.70
2011,04,29,04,51,1.70
2011,04,29,04,52,1.70
2011,04,29,04,53,1.70
2011,04,29,04,54,1.80
2011,04,29,04,55,1.80
2011,04,29,04,56,1.80
2011,04,29,04,57,1.80
2011,04,29,04,58,1.80
2011,04,29,04,59,1.80
2011,04,29,05,00,1.80
2011,04,29,05,01,1.80
2011,04,29,05,02,1.80
2011,04,29,05,03,1.80
2011,04,29,05,04,1.70
2011,04,29,05,05,1.70
2011,04,29,05,06,1.70
2011,04,29,05,07,1.70
2011,04,29,05,08,1.70
2011,04,29,05,09,1.60
2011,04,29,05,10,1.60
2011,04,29,05,11,1.60
2011,04,29,05,12,1.60
2011,04,29,05,13,1.60
2011,04,29,05,14,1.60
2011,04,29,05,15,1.60
2011,04,29,05,16,1.60
2011,04,29,05,17,1.60
2011,04,29,05,18,1.60
2011,04,29,05,19,1.60
2011,04,29,05,20,1.60
2011,04,29,05,21,1.60
2011,04,29,05,22,1.60
2011,04,29,05,23,1.70
2011,04,29,05,24,1.70
2011,04,29,05,25,1.60
2011,04,29,05,26,1.60
2011,04,29,05,27,1.60
2011,04,29,05,28,1.60
2011,04,29,05,29,1.70
2011,04,29,05,30,1.70
2011,04,29,05,31,1.70
2011,04,29,05,32,1.70
2011,04,29,05,33,1.70
2011,04,29,05,34,1.70
2011,04,29,05,35,1.70
2011,04,29,05,36,1.70
2011,04,29,05,37,1.70
2011,04,29,05,38,1.60
2011,04,29,05,39,1.60
2011,04,29,05,40,1.70
2011,04,29,05,41,1.60
2011,04,29,05,42,1.60
2011,04,29,05,43,1.60
2011,04,29,05,44,1.60
2011,04,29,05,45,1.70
2011,04,29,05,46,1.70
2011,04,29,05,47,1.70
2011,04,29,05,48,1.70
2011,04,29,05,49,1.80
2011,04,29,05,50,1.80
2011,04,29,05,51,1.80
2011,04,29,05,52,1.80
2011,04,29,05,53,1.80
2011,04,29,05,54,1.80
2011,04,29,05,55,1.80
2011,04,29,05,56,1.80
2011,04,29,05,57,1.70
2011,04,29,05,58,1.70
2011,04,29,05,59,1.70
2011,04,29,06,00,1.70
2011,04,29,06,01,1.70
2011,04,29,06,02,1.70
2011,04,29,06,03,1.70
2011,04,29,06,04,1.70
2011,04,29,06,05,1.70
2011,04,29,06,06,1.70
2011,04,29,06,07,1.70
2011,04,29,06,08,1.70
2011,04,29,06,09,1.60
2011,04,29,06,10,1.60
2011,04,29,06,11,1.60
2011,04,29,06,12,1.60
2011,04,29,06,13,1.60
2011,04,29,06,14,1.60
2011,04,29,06,15,1.60
2011,04,29,06,16,1.60
2011,04,29,06,17,1.60
2011,04,29,06,18,1.60
2011,04,29,06,19,1.60
2011,04,29,06,20,1.60
2011,04,29,06,21,1.60
2011,04,29,06,22,1.50
2011,04,29,06,23,1.50
2011,04,29,06,24,1.50
2011,04,29,06,25,1.50
2011,04,29,06,26,1.50
2011,04,29,06,27,1.50
2011,04,29,06,28,1.50
2011,04,29,06,29,1.50
2011,04,29,06,30,1.50
2011,04,29,06,31,1.60
2011,04,29,06,32,1.60
2011,04,29,06,33,1.60
2011,04,29,06,34,1.60
2011,04,29,06,35,1.60
2011,04,29,06,36,1.70
2011,04,29,06,37,1.70
2011,04,29,06,38,1.70
2011,04,29,06,39,1.70
2011,04,29,06,40,1.70
2011,04,29,06,41,1.70
2011,04,29,06,42,1.80
2011,04,29,06,43,1.70
2011,04,29,06,44,1.70
2011,04,29,06,45,1.70
2011,04,29,06,46,1.70
2011,04,29,06,47,1.70
2011,04,29,06,48,1.80
2011,04,29,06,49,1.70
2011,04,29,06,50,1.70
2011,04,29,06,51,1.70
2011,04,29,06,52,1.70
2011,04,29,06,53,1.70
2011,04,29,06,54,1.70
2011,04,29,06,55,1.70
2011,04,29,06,56,1.70
2011,04,29,06,57,1.80
2011,04,29,06,58,1.80
2011,04,29,06,59,1.80
2011,04,29,07,00,1.80
2011,04,29,07,01,1.80
2011,04,29,07,02,1.80
2011,04,29,07,03,1.80
2011,04,29,07,04,1.80
2011,04,29,07,05,1.70
2011,04,29,07,06,1.70
2011,04,29,07,07,1.70
2011,04,29,07,08,1.70
2011,04,29,07,09,1.80
2011,04,29,07,10,1.80
2011,04,29,07,11,1.80
2011,04,29,07,12,1.80
2011,04,29,07,13,1.80
2011,04,29,07,14,1.80
2011,04,29,07,15,1.90
2011,04,29,07,16,1.90
2011,04,29,07,17,1.90
2011,04,29,07,18,2.00
2011,04,29,07,19,2.00
2011,04,29,07,20,2.00
2011,04,29,07,21,2.10
2011,04,29,07,22,2.10
2011,04,29,07,23,2.10
2011,04,29,07,24,2.10
2011,04,29,07,25,2.20
2011,04,29,07,26,2.20
2011,04,29,07,27,2.20
2011,04,29,07,28,2.20
2011,04,29,07,29,2.20
2011,04,29,07,30,2.30
2011,04,29,07,31,2.30
2011,04,29,07,32,2.30
2011,04,29,07,33,2.40
2011,04,29,07,34,2.40
2011,04,29,07,35,2.40
2011,04,29,07,36,2.50
2011,04,29,07,37,2.50
2011,04,29,07,38,2.60
2011,04,29,07,39,2.60
2011,04,29,07,40,2.60
2011,04,29,07,41,2.70
2011,04,29,07,42,2.70
2011,04,29,07,43,2.70
2011,04,29,07,44,2.80
2011,04,29,07,45,2.80
2011,04,29,07,46,2.80
2011,04,29,07,47,2.90
2011,04,29,07,48,2.90
2011,04,29,07,49,2.90
2011,04,29,07,50,3.00
2011,04,29,07,51,3.00
2011,04,29,07,52,3.10
2011,04,29,07,53,3.10
2011,04,29,07,54,3.10
2011,04,29,07,55,3.20
2011,04,29,07,56,3.20
2011,04,29,07,57,3.20
2011,04,29,07,58,3.30
2011,04,29,07,59,3.30
2011,04,29,08,00,3.30
2011,04,29,08,01,3.40
2011,04,29,08,02,3.40
2011,04,29,08,03,3.50
2011,04,29,08,04,3.50
2011,04,29,08,05,3.60
2011,04,29,08,06,3.70
2011,04,29,08,07,3.70
2011,04,29,08,08,3.80
2011,04,29,08,09,3.80
2011,04,29,08,10,3.80
2011,04,29,08,11,3.80
2011,04,29,08,12,3.90
2011,04,29,08,13,3.90
2011,04,29,08,14,4.00
2011,04,29,08,15,4.00
2011,04,29,08,16,4.10
2011,04,29,08,17,4.10
2011,04,29,08,18,4.20
2011,04,29,08,19,4.20
2011,04,29,08,20,4.30
2011,04,29,08,21,4.30
2011,04,29,08,22,4.30
2011,04,29,08,23,4.40
2011,04,29,08,24,4.50
2011,04,29,08,25,4.50
2011,04,29,08,26,4.60
2011,04,29,08,27,4.60
2011,04,29,08,28,4.60
2011,04,29,08,29,4.70
2011,04,29,08,30,4.70
2011,04,29,08,31,4.70
2011,04,29,08,32,4.80
2011,04,29,08,33,4.80
2011,04,29,08,34,4.80
2011,04,29,08,35,4.90
2011,04,29,08,36,4.90
2011,04,29,08,37,5.00
2011,04,29,08,38,5.10
2011,04,29,08,39,5.10
2011,04,29,08,40,5.10
2011,04,29,08,41,5.20
2011,04,29,08,42,5.20
2011,04,29,08,43,5.20
2011,04,29,08,44,5.20
2011,04,29,08,45,5.30
2011,04,29,08,46,5.30
2011,04,29,08,47,5.30
2011,04,29,08,48,5.30
2011,04,29,08,49,5.40
2011,04,29,08,50,5.40
2011,04,29,08,51,5.40
2011,04,29,08,52,5.50
2011,04,29,08,53,5.50
2011,04,29,08,54,5.60
2011,04,29,08,55,5.60
2011,04,29,08,56,5.70
2011,04,29,08,57,5.70
2011,04,29,08,58,5.70
2011,04,29,08,59,5.80
2011,04,29,09,00,5.80
2011,04,29,09,01,5.80
2011,04,29,09,02,5.80
2011,04,29,09,03,5.80
2011,04,29,09,04,5.90
2011,04,29,09,05,5.90
2011,04,29,09,06,5.90
2011,04,29,09,07,6.00
2011,04,29,09,08,6.00
2011,04,29,09,09,6.10
2011,04,29,09,10,6.10
2011,04,29,09,11,6.20
2011,04,29,09,12,6.20
2011,04,29,09,13,6.20
2011,04,29,09,14,6.20
2011,04,29,09,15,6.30
2011,04,29,09,16,6.30
2011,04,29,09,17,6.30
2011,04,29,09,18,6.30
2011,04,29,09,19,6.30
2011,04,29,09,20,6.40
2011,04,29,09,21,6.40
2011,04,29,09,22,6.40
2011,04,29,09,23,6.40
2011,04,29,09,24,6.50
2011,04,29,09,25,6.50
2011,04,29,09,26,6.60
2011,04,29,09,27,6.60
2011,04,29,09,28,6.70
2011,04,29,09,29,6.80
2011,04,29,09,30,6.90
2011,04,29,09,31,6.90
2011,04,29,09,32,7.00
2011,04,29,09,33,7.10
2011,04,29,09,34,7.20
2011,04,29,09,35,7.20
2011,04,29,09,36,7.30
2011,04,29,09,37,7.40
2011,04,29,09,38,7.50
2011,04,29,09,39,7.60
2011,04,29,09,40,7.60
2011,04,29,09,41,7.70
2011,04,29,09,42,7.70
2011,04,29,09,43,7.80
2011,04,29,09,44,7.90
2011,04,29,09,45,8.00
2011,04,29,09,46,8.10
2011,04,29,09,47,8.20
2011,04,29,09,48,8.30
2011,04,29,09,49,8.40
2011,04,29,09,50,8.50
2011,04,29,09,51,8.50
2011,04,29,09,52,8.50
2011,04,29,09,53,8.60
2011,04,29,09,54,8.60
2011,04,29,09,55,8.60
2011,04,29,09,56,8.60
2011,04,29,09,57,8.70
2011,04,29,09,58,8.70
2011,04,29,09,59,8.70
2011,04,29,10,00,8.80
2011,04,29,10,01,8.80
2011,04,29,10,02,8.80
2011,04,29,10,03,8.80
2011,04,29,10,04,8.80
2011,04,29,10,05,8.80
2011,04,29,10,06,8.80
2011,04,29,10,07,8.90
2011,04,29,10,08,8.90
2011,04,29,10,09,8.90
2011,04,29,10,10,9.00
2011,04,29,10,11,9.00
2011,04,29,10,12,9.10
2011,04,29,10,13,9.20
2011,04,29,10,14,9.20
2011,04,29,10,15,9.30
2011,04,29,10,16,9.30
2011,04,29,10,17,9.50
2011,04,29,10,18,9.50
2011,04,29,10,19,9.60
2011,04,29,10,20,9.70
2011,04,29,10,21,9.80
2011,04,29,10,22,9.90
2011,04,29,10,23,10.00
2011,04,29,10,24,10.10
2011,04,29,10,25,10.20
2011,04,29,10,26,10.30
2011,04,29,10,27,10.30
2011,04,29,10,28,10.40
2011,04,29,10,29,10.50
2011,04,29,10,30,10.60
2011,04,29,10,31,10.60
2011,04,29,10,32,10.70
2011,04,29,10,33,10.80
2011,04,29,10,34,10.90
2011,04,29,10,35,10.90
2011,04,29,10,36,10.90
2011,04,29,10,37,10.90
2011,04,29,10,38,10.90
2011,04,29,10,39,10.90
2011,04,29,10,40,10.90
2011,04,29,10,41,11.00
2011,04,29,10,42,11.10
2011,04,29,10,43,11.10
2011,04,29,10,44,11.10
2011,04,29,10,45,11.20
2011,04,29,10,46,11.20
2011,04,29,10,47,11.20
2011,04,29,10,48,11.30
2011,04,29,10,49,11.30
2011,04,29,10,50,11.40
2011,04,29,10,51,11.50
2011,04,29,10,52,11.50
2011,04,29,10,53,11.60
2011,04,29,10,54,11.60
2011,04,29,10,55,11.60
2011,04,29,10,56,11.60
2011,04,29,10,57,11.60
2011,04,29,10,58,11.60
2011,04,29,10,59,11.60
2011,04,29,11,00,11.60
2011,04,29,11,01,11.70
2011,04,29,11,02,11.70
2011,04,29,11,03,11.70
2011,04,29,11,04,11.60
2011,04,29,11,05,11.50
2011,04,29,11,06,11.40
2011,04,29,11,07,11.40
2011,04,29,11,08,11.30
2011,04,29,11,09,11.30
2011,04,29,11,10,11.20
2011,04,29,11,11,11.20
2011,04,29,11,12,11.10
2011,04,29,11,13,11.10
2011,04,29,11,14,11.10
2011,04,29,11,15,11.10
2011,04,29,11,16,11.20
2011,04,29,11,17,11.20
2011,04,29,11,18,11.20
2011,04,29,11,19,11.30
2011,04,29,11,20,11.30
2011,04,29,11,21,11.30
2011,04,29,11,22,11.30
2011,04,29,11,23,11.30
2011,04,29,11,24,11.40
2011,04,29,11,25,11.50
2011,04,29,11,26,11.60
2011,04,29,11,27,11.60
2011,04,29,11,28,11.70
2011,04,29,11,29,11.70
2011,04,29,11,30,11.70
2011,04,29,11,31,11.80
2011,04,29,11,32,11.80
2011,04,29,11,33,11.80
2011,04,29,11,34,11.80
2011,04,29,11,35,11.80
2011,04,29,11,36,11.80
2011,04,29,11,37,11.70
2011,04,29,11,38,11.70
2011,04,29,11,39,11.70
2011,04,29,11,40,11.70
2011,04,29,11,41,11.70
2011,04,29,11,42,11.70
2011,04,29,11,43,11.70
2011,04,29,11,44,11.70
2011,04,29,11,45,11.60
2011,04,29,11,46,11.60
2011,04,29,11,47,11.60
2011,04,29,11,48,11.60
2011,04,29,11,49,11.60
2011,04,29,11,50,11.60
2011,04,29,11,51,11.60
2011,04,29,11,52,11.60
2011,04,29,11,53,11.60
2011,04,29,11,54,11.60
2011,04,29,11,55,11.60
2011,04,29,11,56,11.60
2011,04,29,11,57,11.60
2011,04,29,11,58,11.70
2011,04,29,11,59,11.70
2011,04,29,12,00,11.80
2011,04,29,12,01,11.90
2011,04,29,12,02,12.00
2011,04,29,12,03,12.20
2011,04,29,12,04,12.20
2011,04,29,12,05,12.30
2011,04,29,12,06,12.30
2011,04,29,12,07,12.40
2011,04,29,12,08,12.40
2011,04,29,12,09,12.40
2011,04,29,12,10,12.40
2011,04,29,12,11,12.50
2011,04,29,12,12,12.60
2011,04,29,12,13,12.70
2011,04,29,12,14,12.80
2011,04,29,12,15,12.80
2011,04,29,12,16,12.90
2011,04,29,12,17,13.00
2011,04,29,12,18,13.00
2011,04,29,12,19,13.00
2011,04,29,12,20,12.90
2011,04,29,12,21,12.90
2011,04,29,12,22,12.80
2011,04,29,12,23,12.70
2011,04,29,12,24,12.70
2011,04,29,12,25,12.60
2011,04,29,12,26,12.50
2011,04,29,12,27,12.40
2011,04,29,12,28,12.30
2011,04,29,12,29,12.20
2011,04,29,12,30,12.10
2011,04,29,12,31,12.10
2011,04,29,12,32,12.10
2011,04,29,12,33,12.10
2011,04,29,12,34,12.10
2011,04,29,12,35,12.10
2011,04,29,12,36,12.10
2011,04,29,12,37,12.10
2011,04,29,12,38,12.20
2011,04,29,12,39,12.20
2011,04,29,12,40,12.20
2011,04,29,12,41,12.10
2011,04,29,12,42,12.00
2011,04,29,12,43,11.90
2011,04,29,12,44,11.90
2011,04,29,12,45,11.80
2011,04,29,12,46,11.80
2011,04,29,12,47,11.70
2011,04,29,12,48,11.70
2011,04,29,12,49,11.70
2011,04,29,12,50,11.70
2011,04,29,12,51,11.60
2011,04,29,12,52,11.60
2011,04,29,12,53,11.60
2011,04,29,12,54,11.60
2011,04,29,12,55,11.50
2011,04,29,12,56,11.50
2011,04,29,12,57,11.50
2011,04,29,12,58,11.50
2011,04,29,12,59,11.50
2011,04,29,13,00,11.50
2011,04,29,13,01,11.60
2011,04,29,13,02,11.60
2011,04,29,13,03,11.60
2011,04,29,13,04,11.50
2011,04,29,13,05,11.50
2011,04,29,13,06,11.40
2011,04,29,13,07,11.40
2011,04,29,13,08,11.30
2011,04,29,13,09,11.30
2011,04,29,13,10,11.20
2011,04,29,13,11,11.20
2011,04,29,13,12,11.20
2011,04,29,13,13,11.10
2011,04,29,13,14,11.10
2011,04,29,13,15,11.10
2011,04,29,13,16,11.10
2011,04,29,13,17,11.10
2011,04,29,13,18,11.10
2011,04,29,13,19,11.10
2011,04,29,13,20,11.10
2011,04,29,13,21,11.10
2011,04,29,13,22,11.10
2011,04,29,13,23,11.20
2011,04,29,13,24,11.20
2011,04,29,13,25,11.20
2011,04,29,13,26,11.20
2011,04,29,13,27,11.20
2011,04,29,13,28,11.20
2011,04,29,13,29,11.20
2011,04,29,13,30,11.20
2011,04,29,13,31,11.10
2011,04,29,13,32,11.10
2011,04,29,13,33,11.10
2011,04,29,13,34,11.10
2011,04,29,13,35,11.10
2011,04,29,13,36,11.10
2011,04,29,13,37,11.10
2011,04,29,13,38,11.10
2011,04,29,13,39,11.00
2011,04,29,13,40,11.00
2011,04,29,13,41,11.00
2011,04,29,13,42,10.90
2011,04,29,13,43,10.90
2011,04,29,13,44,10.90
2011,04,29,13,45,11.00
2011,04,29,13,46,11.10
2011,04,29,13,47,11.10
2011,04,29,13,48,11.20
2011,04,29,13,49,11.20
2011,04,29,13,50,11.30
2011,04,29,13,51,11.30
2011,04,29,13,52,11.40
2011,04,29,13,53,11.50
2011,04,29,13,54,11.60
2011,04,29,13,55,11.70
2011,04,29,13,56,11.80
2011,04,29,13,57,11.90
2011,04,29,13,58,12.10
2011,04,29,13,59,12.20
2011,04,29,14,00,12.30
2011,04,29,14,01,12.40
2011,04,29,14,02,12.50
2011,04,29,14,03,12.60
2011,04,29,14,04,12.70
2011,04,29,14,05,12.80
2011,04,29,14,06,12.80
2011,04,29,14,07,12.90
2011,04,29,14,08,12.90
2011,04,29,14,09,12.90
2011,04,29,14,10,12.90
2011,04,29,14,11,12.90
2011,04,29,14,12,12.80
2011,04,29,14,13,12.50
2011,04,29,14,14,12.40
2011,04,29,14,15,12.40
2011,04,29,14,16,12.30
2011,04,29,14,17,12.30
2011,04,29,14,18,12.40
2011,04,29,14,19,12.50
2011,04,29,14,20,12.60
2011,04,29,14,21,12.70
2011,04,29,14,22,12.70
2011,04,29,14,23,12.80
2011,04,29,14,24,12.80
2011,04,29,14,25,12.90
2011,04,29,14,26,13.00
2011,04,29,14,27,13.00
2011,04,29,14,28,13.10
2011,04,29,14,29,13.10
2011,04,29,14,30,13.10
2011,04,29,14,31,13.20
2011,04,29,14,32,13.20
2011,04,29,14,33,13.30
2011,04,29,14,34,13.30
2011,04,29,14,35,13.40
2011,04,29,14,36,13.50
2011,04,29,14,37,13.60
2011,04,29,14,38,13.60
2011,04,29,14,39,13.60
2011,04,29,14,40,13.60
2011,04,29,14,41,13.60
2011,04,29,14,42,13.70
2011,04,29,14,43,13.80
2011,04,29,14,44,13.90
2011,04,29,14,45,14.00
2011,04,29,14,46,14.00
2011,04,29,14,47,14.10
2011,04,29,14,48,14.20
2011,04,29,14,49,14.20
2011,04,29,14,50,14.20
2011,04,29,14,51,14.30
2011,04,29,14,52,14.30
2011,04,29,14,53,14.30
2011,04,29,14,54,14.30
2011,04,29,14,55,14.30
2011,04,29,14,56,14.30
2011,04,29,14,57,14.30
2011,04,29,14,58,14.30
2011,04,29,14,59,14.30
2011,04,29,15,00,14.20
2011,04,29,15,01,14.10
2011,04,29,15,02,14.00
2011,04,29,15,03,13.90
2011,04,29,15,04,13.80
2011,04,29,15,05,13.80
2011,04,29,15,06,13.80
2011,04,29,15,07,13.70
2011,04,29,15,08,13.80
2011,04,29,15,09,13.80
2011,04,29,15,10,13.80
2011,04,29,15,11,13.80
2011,04,29,15,12,13.80
2011,04,29,15,13,13.70
2011,04,29,15,14,13.60
2011,04,29,15,15,13.50
2011,04,29,15,16,13.40
2011,04,29,15,17,13.30
2011,04,29,15,18,13.30
2011,04,29,15,19,13.20
2011,04,29,15,20,13.20
2011,04,29,15,21,13.10
2011,04,29,15,22,13.00
2011,04,29,15,23,12.90
2011,04,29,15,24,12.80
2011,04,29,15,25,12.80
2011,04,29,15,26,12.70
2011,04,29,15,27,12.60
2011,04,29,15,28,12.50
2011,04,29,15,29,12.40
2011,04,29,15,30,12.30
2011,04,29,15,31,12.20
2011,04,29,15,32,12.10
2011,04,29,15,33,12.00
2011,04,29,15,34,12.00
2011,04,29,15,35,12.00
2011,04,29,15,36,12.10
2011,04,29,15,37,12.10
2011,04,29,15,38,12.20
2011,04,29,15,39,12.30
2011,04,29,15,40,12.30
2011,04,29,15,41,12.30
2011,04,29,15,42,12.30
2011,04,29,15,43,12.40
2011,04,29,15,44,12.40
2011,04,29,15,45,12.40
2011,04,29,15,46,12.50
2011,04,29,15,47,12.50
2011,04,29,15,48,12.60
2011,04,29,15,49,12.60
2011,04,29,15,50,12.70
2011,04,29,15,51,12.80
2011,04,29,15,52,12.90
2011,04,29,15,53,13.00
2011,04,29,15,54,13.10
2011,04,29,15,55,13.10
2011,04,29,15,56,13.10
2011,04,29,15,57,13.00
2011,04,29,15,58,12.80
2011,04,29,15,59,12.70
2011,04,29,16,00,12.60
2011,04,29,16,01,12.50
2011,04,29,16,02,12.40
2011,04,29,16,03,12.40
2011,04,29,16,04,12.40
2011,04,29,16,05,12.40
2011,04,29,16,06,12.40
2011,04,29,16,07,12.40
2011,04,29,16,08,12.40
2011,04,29,16,09,12.40
2011,04,29,16,10,12.40
2011,04,29,16,11,12.30
2011,04,29,16,12,12.10
2011,04,29,16,13,12.00
2011,04,29,16,14,11.90
2011,04,29,16,15,11.80
2011,04,29,16,16,11.70
2011,04,29,16,17,11.70
2011,04,29,16,18,11.60
2011,04,29,16,19,11.50
2011,04,29,16,20,11.40
2011,04,29,16,21,11.40
2011,04,29,16,22,11.30
2011,04,29,16,23,11.30
2011,04,29,16,24,11.20
2011,04,29,16,25,11.20
2011,04,29,16,26,11.20
2011,04,29,16,27,11.20
2011,04,29,16,28,11.20
2011,04,29,16,29,11.20
2011,04,29,16,30,11.20
2011,04,29,16,31,11.30
2011,04,29,16,32,11.30
2011,04,29,16,33,11.30
2011,04,29,16,34,11.30
2011,04,29,16,35,11.40
2011,04,29,16,36,11.40
2011,04,29,16,37,11.40
2011,04,29,16,38,11.40
2011,04,29,16,39,11.40
2011,04,29,16,40,11.40
2011,04,29,16,41,11.40
2011,04,29,16,42,11.50
2011,04,29,16,43,11.50
2011,04,29,16,44,11.50
2011,04,29,16,45,11.60
2011,04,29,16,46,11.60
2011,04,29,16,47,11.60
2011,04,29,16,48,11.60
2011,04,29,16,49,11.60
2011,04,29,16,50,11.70
2011,04,29,16,51,11.80
2011,04,29,16,52,11.90
2011,04,29,16,53,11.90
2011,04,29,16,54,12.00
2011,04,29,16,55,12.10
2011,04,29,16,56,12.10
2011,04,29,16,57,12.20
2011,04,29,16,58,12.20
2011,04,29,16,59,12.20
2011,04,29,17,00,12.10
2011,04,29,17,01,12.20
2011,04,29,17,02,12.20
2011,04,29,17,03,12.20
2011,04,29,17,04,12.30
2011,04,29,17,05,12.30
2011,04,29,17,06,12.40
2011,04,29,17,07,12.40
2011,04,29,17,08,12.40
2011,04,29,17,09,12.40
2011,04,29,17,10,12.40
2011,04,29,17,11,12.50
2011,04,29,17,12,12.60
2011,04,29,17,13,12.60
2011,04,29,17,14,12.60
2011,04,29,17,15,12.70
2011,04,29,17,16,12.70
2011,04,29,17,17,12.70
2011,04,29,17,18,12.70
2011,04,29,17,19,12.70
2011,04,29,17,20,12.80
2011,04,29,17,21,12.80
2011,04,29,17,22,12.80
2011,04,29,17,23,12.90
2011,04,29,17,24,12.90
2011,04,29,17,25,13.00
2011,04,29,17,26,13.10
2011,04,29,17,27,13.20
2011,04,29,17,28,13.40
2011,04,29,17,29,13.50
2011,04,29,17,30,13.60
2011,04,29,17,31,13.60
2011,04,29,17,32,13.60
2011,04,29,17,33,13.50
2011,04,29,17,34,13.40
2011,04,29,17,35,13.30
2011,04,29,17,36,13.30
2011,04,29,17,37,13.20
2011,04,29,17,38,13.20
2011,04,29,17,39,13.20
2011,04,29,17,40,13.20
2011,04,29,17,41,13.20
2011,04,29,17,42,13.20
2011,04,29,17,43,13.10
2011,04,29,17,44,13.00
2011,04,29,17,45,13.00
2011,04,29,17,46,12.90